カタログに戻る

STARLINK-4303

運用中通信VLEO
NORAD 53544·PAYLOAD·🇺🇸 United States

打ち上げ Aug 19, 2022 から Cape Canaveral Space Force Station

Loading…

次のパス (今後24時間)

TLE

最新Source: CelesTrak SupGP

元期: Sep 15, 2026, 02:13 UTC

1 53544C 22101T   26258.09284722  .00001171  00000+0  34582-4 0  2587
2 53544  53.1575 278.8844 0001291  90.2626 200.5461 15.34394696    17

AllMySatでSTARLINK-4303をリアルタイム追跡

Download on the App Store